This demonstration page uses our WeatherBlox Daily Observations layout. Learn more.

Left ArrowRight Arrow

Hourly Observations for June 6, 2016

Temp ( °F °C ) Dew Point ( °F °C ) Humidity (%) Winds ( mph kmh ) Pressure ( in mb ) Visibility ( mi km ) Precip ( " mm )
12:51 am 00:51 Clear 81 27.2 38 3.3 21 21 E 8 13 29.66 1004 10 16 0.00 0.00
1:51 am 01:51 Clear 81 27.2 38 3.3 21 21 E 10 17 29.65 1004 10 16 0.00 0.00
2:51 am 02:51 Clear 82 27.8 40 4.4 22 22 E 8 13 29.65 1004 10 16 0.00 0.00
3:51 am 03:51 Clear 82 27.8 40 4.4 22 22 E 13 20 29.65 1004 10 16 0.00 0.00
4:51 am 04:51 Clear 83 28.3 41 5 23 23 E 15 24 29.68 1005 10 16 0.00 0.00
5:51 am 05:51 Sunny 76 24.4 40 4.4 27 27 S 9 15 29.71 1006 10 16 0.00 0.00
6:51 am 06:51 Sunny 83 28.3 41 5 23 23 ESE 8 13 29.72 1006 10 16 0.00 0.00
7:51 am 07:51 Sunny 85 29.4 42 5.6 22 22 SE 10 17 29.73 1007 10 16 0.00 0.00
8:51 am 08:51 Sunny 90 32.2 42 5.6 19 19 SSE 9 15 29.72 1007 10 16 0.00 0.00
9:51 am 09:51 Sunny 93 33.9 43 6.1 18 18 SE 9 15 29.70 1006 10 16 0.00 0.00
10:51 am 10:51 Sunny 96 35.6 43 6.1 16 16 SSE 12 19 29.69 1005 10 16 0.00 0.00
11:51 am 11:51 Sunny 98 36.7 41 5 14 14 SSW 7 11 29.66 1005 10 16 0.00 0.00
12:51 pm 12:51 Sunny 102 38.9 36 2.2 10 10 Calm 29.63 1004 10 16 0.00 0.00
1:51 pm 13:51 Sunny 104 40 33 0.6 8 8 SSE 8 13 29.60 1002 10 16 0.00 0.00
2:51 pm 14:51 Sunny 106 41.1 31 -0.6 7 7 NNE 8 13 29.56 1001 10 16 0.00 0.00
3:51 pm 15:51 Sunny 107 41.7 30 -1.1 7 7 N 8 13 29.53 1000 10 16 0.00 0.00
4:51 pm 16:51 Sunny 106 41.1 28 -2.2 6 6 WSW 12 19 29.50 999 10 16 0.00 0.00
5:51 pm 17:51 Sunny 105 40.6 27 -2.8 6 6 VRB 5 7 29.51 999 10 16 0.00 0.00
6:51 pm 18:51 Sunny 103 39.4 21 -6.1 5 5 WNW 15 24 29.52 1000 10 16 0.00 0.00
7:51 pm 19:51 Clear 98 36.7 18 -7.8 5 5 NW 17 28 29.54 1000 10 16 0.00 0.00
8:51 pm 20:51 Clear 94 34.4 18 -7.8 6 6 NW 14 22 29.57 1001 10 16 0.00 0.00
9:51 pm 21:51 Clear 90 32.2 16 -8.9 6 6 WNW 10 17 29.60 1003 10 16 0.00 0.00
10:51 pm 22:51 Clear 83 28.3 17 -8.3 8 8 NW 12 19 29.63 1003 10 16 0.00 0.00
11:51 pm 23:51 Clear 83 28.3 16 -8.9 8 8 N 9 15 29.65 1004 10 16 0.00 0.00

Powered by AerisWeather